Location: Plainartige
(45.6866°N, 1.7993°E)
Time: 23:36:18
(UTC+00:00)

STRAND 1 - Visible Passes

Search period start: 27 June 2022 00:00
Search period end: 07 July 2022 00:00
Orbit: 768 x 780 km, 98.4° (Epoch: 27 June)

Date Brightness Start Highest point End Pass type
(mag) Time Alt. Az. Time Alt. Az. Time Alt. Az.
27 Jun ? 20:21:01 10° NNW 20:24:55 22° WNW 20:28:47 10° WSW visible
29 Jun ? 20:53:06 10° NNW 20:55:18 13° NW 20:57:29 10° W visible
30 Jun ? 20:17:33 10° N 20:21:34 23° WNW 20:25:33 10° WSW visible
02 Jul ? 20:49:31 10° NNW 20:51:58 14° NW 20:54:24 10° W visible
05 Jul ? 20:45:57 10° NNW 20:48:37 14° WNW 20:51:17 10° W visible
